Zurück zum Katalog

IUS R/B(2)

AktivGEO
NORAD 28161·ROCKET BODY·🇺🇸 United States

Gestartet Feb 14, 2004 von Cape Canaveral Space Force Station

Loading…

TLE

AktuellSource: Space-Track

Epoche: Sep 14, 2026, 11:55 UTC

1 28161U 04004D   26257.49704705  .00000095  00000-0  00000+0 0  9997
2 28161  12.2998  25.6051 0004236  27.4922 332.5581  0.99820535 26287

Verfolge IUS R/B(2) in Echtzeit mit AllMySat

Download on the App Store